Location: Les Chemineaux
(47.3024°N, 1.5104°E)
Time: 06:44:36
(UTC+00:00)

Exosat Rocket - Pass Details

Date: 19 May 2025
Orbit: 761 x 2512 km, 72.3° (Epoch: 18 June)

Event Time Altitude Azimuth Distance (km) Brightness Sun altitude
Rises 23:09:52 0° 335° (NNW) 3,347 8.2 -22.1°
Reaches altitude 10° 23:12:19 10° 338° (NNW) 2,341 7.1 -22.2°
Maximum altitude 23:17:21 73° 63° (ENE) 803 3.5 -22.3°
Enters shadow 23:18:46 47° 134° (SE) 1,019 3.8 -22.3°
